Stevensville, MD

3:52 PM EST on February 20, 2017 (GMT -0500)
Stevensville

Weather History for KW29 - January, 2013

Change the Weather History Date:

Wednesday, January 9, 2013

  Actual Average (KESN) Record (KESN)
Temperature  
Mean Temperature 42 °F -  
Max Temperature 51 °F 37 °F 60 °F (1964)
Min Temperature 33 °F 20 °F 7 °F (1970)
Degree Days  
Heating Degree Days 23    
Moisture  
Dew Point 37 °F    
Average Humidity 83    
Maximum Humidity 100    
Minimum Humidity 47    
Precipitation  
Precipitation 0.00 in - - ()
Sea Level Pressure  
Sea Level Pressure 30.33 in    
Wind  
Wind Speed 2 mph (South)    
Max Wind Speed 15 mph    
Max Gust Speed 20 mph    
Visibility 8 miles    
Events      
Averages and records for this station are not official NWS values.
T = Trace of Precipitation, MM = Missing Value Source: NWS Daily Summary

Daily Weather History Graph

Daily Weather History Graph

Search for Another Location

Airport or City:

Trip Planner

Search our weather history database for the weather conditions in past years. The results will help you decide how hot, cold, wet, or windy it might be!

Date:

Astronomy

Jan. 09, 2013 Rise Set
Actual Time 7:24 AM EST 5:01 PM EST
Civil Twilight 6:54 AM EST 5:30 PM EST
Nautical Twilight 6:21 AM EST 6:04 PM EST
Astronomical Twilight 5:49 AM EST 6:36 PM EST
Moon 5:00 AM EST (1/9) 3:00 PM EST (1/9)
Length of Visible Light 10h 36m
Length of Day
9h 37m
Waning Crescent, 6% of the Moon is Illuminated
Jan 9
Waning Crescent
Jan 11
New
Jan 18
First Quarter
Jan 26
Full
Feb 3
Last Quarter

Hourly Weather History & Observations

Time (EST) Temp. Windchill Dew Point Humidity Pressure Visibility Wind Dir Wind Speed Gust Speed Precip Events Conditions
12:00 AM 37.4 °F - 37.4 °F 100% 30.39 in 5.0 mi Calm Calm - N/A   Clear
12:21 AM 35.6 °F - 35.6 °F 100% 30.39 in 10.0 mi Calm Calm - N/A   Clear
12:43 AM 35.6 °F - 35.6 °F 100% 30.39 in 7.0 mi Calm Calm - N/A   Clear
1:04 AM 35.6 °F - 33.8 °F 93% 30.40 in 7.0 mi Calm Calm - N/A   Clear
1:25 AM 35.6 °F - 33.8 °F 93% 30.39 in 10.0 mi Calm Calm - N/A   Clear
1:47 AM 35.6 °F - 35.6 °F 100% 30.38 in 7.0 mi Calm Calm - N/A   Clear
2:08 AM 33.8 °F - 33.8 °F 100% 30.38 in 7.0 mi Calm Calm - N/A   Clear
2:51 AM 33.8 °F - 33.8 °F 100% 30.38 in 5.0 mi Calm Calm - N/A   Clear
3:12 AM 33.8 °F - 33.8 °F 100% 30.38 in 4.0 mi Calm Calm - N/A   Clear
3:33 AM 33.8 °F - 33.8 °F 100% 30.39 in 7.0 mi Calm Calm - N/A   Clear
3:54 AM 33.8 °F - 33.8 °F 100% 30.38 in 3.0 mi Calm Calm - N/A   Clear
4:16 AM 33.8 °F - 33.8 °F 100% 30.37 in 4.0 mi Calm Calm - N/A   Clear
4:37 AM 33.8 °F 30.8 °F 33.8 °F 100% 30.37 in 4.0 mi ESE 3.5 mph - N/A   Clear
4:58 AM 33.8 °F 30.8 °F 33.8 °F 100% 30.37 in 5.0 mi SSE 3.5 mph - N/A   Clear
5:20 AM 33.8 °F - 33.8 °F 100% 30.37 in 4.0 mi Calm Calm - N/A   Clear
5:41 AM 35.6 °F - 35.6 °F 100% 30.36 in 3.0 mi Calm Calm - N/A   Clear
6:02 AM 35.6 °F - 35.6 °F 100% 30.36 in 5.0 mi Calm Calm - N/A   Clear
6:24 AM 35.6 °F - 35.6 °F 100% 30.36 in 7.0 mi Calm Calm - N/A   Clear
6:45 AM 35.6 °F - 35.6 °F 100% 30.37 in 7.0 mi Calm Calm - N/A   Clear
7:06 AM 33.8 °F 30.8 °F 33.8 °F 100% 30.37 in 7.0 mi SE 3.5 mph - N/A   Clear
7:27 AM 33.8 °F 28.6 °F 33.8 °F 100% 30.37 in 5.0 mi SSE 5.8 mph - N/A   Scattered Clouds
7:49 AM 35.6 °F 30.7 °F 35.6 °F 100% 30.38 in 7.0 mi SSE 5.8 mph - N/A   Mostly Cloudy
8:10 AM 37.4 °F 33.8 °F 37.4 °F 100% 30.38 in 10.0 mi SE 4.6 mph - N/A   Overcast
8:31 AM 39.2 °F 35.9 °F 37.4 °F 93% 30.39 in 10.0 mi SSE 4.6 mph - N/A   Overcast
8:52 AM 41.0 °F 38.0 °F 37.4 °F 87% 30.38 in 10.0 mi SSE 4.6 mph - N/A   Scattered Clouds
9:14 AM 42.8 °F 41.1 °F 37.4 °F 81% 30.38 in 10.0 mi SSE 3.5 mph - N/A   Clear
9:56 AM 44.6 °F 42.2 °F 35.6 °F 71% 30.37 in 10.0 mi SSE 4.6 mph - N/A   Clear
10:17 AM 44.6 °F 42.2 °F 37.4 °F 76% 30.38 in 10.0 mi South 4.6 mph - N/A   Clear
10:39 AM 46.4 °F 41.9 °F 35.6 °F 66% 30.37 in 10.0 mi South 9.2 mph - N/A   Clear
11:00 AM 48.2 °F - 35.6 °F 62% 30.35 in 10.0 mi South 8.1 mph - N/A   Clear
11:21 AM 48.2 °F - 35.6 °F 62% 30.35 in 10.0 mi SSW 8.1 mph - N/A   Clear
11:42 AM 50.0 °F - 35.6 °F 58% 30.33 in 10.0 mi South 8.1 mph - N/A   Clear
12:25 PM 50.0 °F - 37.4 °F 62% 30.30 in 10.0 mi SSW 5.8 mph - N/A   Clear
12:46 PM 50.0 °F - 37.4 °F 62% 30.31 in 10.0 mi SSW 3.5 mph - N/A   Clear
1:07 PM 50.0 °F - 37.4 °F 62% 30.31 in 10.0 mi WSW 4.6 mph - N/A   Clear
1:29 PM 50.0 °F - 37.4 °F 62% 30.31 in 10.0 mi West 4.6 mph - N/A   Clear
1:50 PM 44.6 °F - 39.2 °F 81% 30.31 in 10.0 mi Calm Calm - N/A   Clear
2:11 PM 46.4 °F - 39.2 °F 76% 30.30 in 10.0 mi Calm Calm - N/A   Clear
2:33 PM 48.2 °F - 37.4 °F 66% 30.30 in 10.0 mi Calm Calm - N/A   Clear
2:54 PM 50.0 °F - 37.4 °F 62% 30.29 in 10.0 mi Calm Calm - N/A   Clear
3:15 PM 50.0 °F - 39.2 °F 66% 30.27 in 10.0 mi South 3.5 mph - N/A   Scattered Clouds
3:36 PM 50.0 °F - 41.0 °F 71% 30.24 in 10.0 mi SSE 5.8 mph - N/A   Scattered Clouds
3:58 PM 50.0 °F - 41.0 °F 71% 30.25 in 10.0 mi South 5.8 mph - N/A   Clear
4:19 PM 48.2 °F - 41.0 °F 76% 30.24 in 10.0 mi SSE 5.8 mph - N/A   Clear
4:40 PM 50.0 °F - 41.0 °F 71% 30.24 in 10.0 mi South 5.8 mph - N/A   Clear
5:01 PM 50.0 °F - 41.0 °F 71% 30.23 in 10.0 mi SSE 5.8 mph - N/A   Clear
5:23 PM 50.0 °F - 42.8 °F 76% 30.23 in 10.0 mi South 5.8 mph - N/A   Clear
5:44 PM 46.4 °F - 41.0 °F 81% 30.24 in 10.0 mi Calm Calm - N/A   Clear
6:05 PM 42.8 °F - 41.0 °F 93% 30.25 in 10.0 mi Calm Calm - N/A   Clear
6:26 PM 42.8 °F 40.1 °F 42.8 °F 100% 30.24 in 7.0 mi SSW 4.6 mph - N/A   Clear
6:48 PM 48.2 °F - 44.6 °F 87% 30.25 in 10.0 mi Calm Calm - N/A   Clear
7:09 PM 46.4 °F 44.3 °F 44.6 °F 93% 30.28 in 10.0 mi West 4.6 mph - N/A   Mostly Cloudy
8:13 PM 44.6 °F - 41.0 °F 87% 30.32 in 10.0 mi Calm Calm - N/A   Clear
8:34 PM 42.8 °F - 41.0 °F 93% 30.32 in 10.0 mi Calm Calm - N/A   Clear
8:55 PM 44.6 °F - 41.0 °F 87% 30.32 in 10.0 mi Calm Calm - N/A   Clear
9:16 PM 44.6 °F 42.2 °F 41.0 °F 87% 30.33 in 10.0 mi West 4.6 mph - N/A   Clear
9:38 PM 46.4 °F 42.9 °F 41.0 °F 81% 30.34 in 10.0 mi WNW 6.9 mph - N/A   Clear
9:59 PM 50.0 °F - 33.8 °F 54% 30.34 in 10.0 mi WNW 15.0 mph 19.6 mph N/A   Clear
11:03 PM 51.8 °F - 32.0 °F 47% 30.36 in 10.0 mi West 9.2 mph - N/A   Clear
11:24 PM 50.0 °F - 32.0 °F 50% 30.36 in 10.0 mi West 10.4 mph - N/A   Clear
11:46 PM 50.0 °F - 32.0 °F 50% 30.37 in 10.0 mi West 6.9 mph - N/A   Clear